Weather in Slavyanskiy

Russia / Krasnodar Krai     44°41′48″N   40°31′13″E
temp.,
°C
wind,
m/s
gust,
m/s
humid.,
%
clouds,
%
prec.,
mm/h
press.,
hPa
HPBL,
m
17 april, sat
sat1700:00+9n239798 0.2 101977
03:00+10wsw1198100 1.3 102029
06:00+10w3997100 4.4 1021552
09:00+8wnw3597100 8.0 1023258
12:00+8nw1295100 1.4 1024248
15:00+8e1195100 3.2 1023150
18:00+8ese3595100 0.3 1023234
21:00+8ese2594100 0.4 1022172
18 april, sun
sun1800:00+8e2592100 0.0 1021159
03:00+8e2393100 0.0 102095
06:00+8ene3896100 0.9 1019262
09:00+10e4791100 1.1 1018359
12:00+14sw2278100 0.1 1017554
15:00+11n129699 0.9 1018141
18:00+14e128950 0.3 1017258
21:00+11sse2294100 0.9 101727
19 april, mon
mon1900:00+11se3393100 0.1 101640
03:00+11ssw2292100 0.2 101613
06:00+11s2290100 0.0 101523
09:00+15n1284100 0.0 1015118
12:00+14ene2392100 0.8 1015259
15:00+15ese3492100 1.1 1014223
18:00+16ene4790100 0.3 1013223
21:00+13e41194100 0.4 1011253
20 april, tue
tue2000:00+13ese369379 0.0 100793
03:00+13se41088100 0.0 1004149
06:00+14se51277100 0.0 1000143
09:00+17nw3477100 0.0 1003184
12:00+19wnw8967100 0.1 1006942
15:00+14wnw51072100 0.4 1008629
18:00+11w41084100 1.9 1012570
21:00+10ssw411895 4.5 1014372
21 april, wed
wed2100:00+8w26905 0.0 1016155
03:00+7w3992100 0.0 1018292
06:00+6ssw229425 0.0 101944
09:00+11w1276100 0.0 1020611
12:00+14nne216229 0.0 10201101
15:00+15se326493 0.0 10191057
18:00+13se3679100 0.0 1020338
21:00+9ese368587 0.0 1021117